This demonstration page uses our WeatherBlox Daily Observations layout. Learn more.

Hourly Observations for July 23, 2015

Temp ( °F °C ) Dew Point ( °F °C ) Humidity (%) Winds ( mph kmh ) Pressure ( in mb ) Visibility ( mi km ) Precip ( " mm )
12:15 am 00:15 Clear 69 20.8 66 18.7 88 88 SE 9 15 29.85 1011 10 16.0934 0 0
12:35 am 00:35 Clear 69 20.8 66 18.7 88 88 SE 8 13 29.85 1011 10 16.0934 0 0
12:55 am 00:55 Clear 69 20.5 65 18.6 89 89 SE 9 15 29.85 1011 10 16.0934 0 0
1:15 am 01:15 Clear 69 20.3 65 18.6 90 90 SE 8 13 29.85 1011 10 16.0934 0 0
1:35 am 01:35 Clear 68 20.1 65 18.5 91 91 SSE 8 13 29.85 1011 10 16.0934 0 0
1:55 am 01:55 Clear 68 20.1 65 18.6 91 91 SE 8 13 29.85 1011 10 16.0934 0 0
2:15 am 02:15 Clear 68 20 65 18.5 91 91 SE 8 13 29.83 1010 10 16.0934 0 0
2:35 am 02:35 Clear 67 19.7 65 18.5 93 93 SSE 8 13 29.83 1010 10 16.0934 0 0
2:55 am 02:55 Clear 67 19.6 65 18.3 92 92 SSE 9 15 29.83 1010 10 16.0934 0 0
3:15 am 03:15 Clear 67 19.5 65 18.2 92 92 SSE 7 11 29.83 1010 10 16.0934 0 0
3:35 am 03:35 Clear 67 19.6 65 18.3 92 92 SSE 7 11 29.83 1010 10 16.0934 0 0
3:55 am 03:55 Clear 67 19.7 65 18.5 93 93 SSE 7 11 29.85 1011 10 16.0934 0 0
4:15 am 04:15 Clear 67 19.7 65 18.5 93 93 SSE 7 11 29.85 1011 10 16.0934 0 0
4:35 am 04:35 Clear 67 19.6 65 18.5 93 93 SSE 6 9 29.85 1011 10 16.0934 0 0
4:55 am 04:55 Clear 67 19.5 65 18.3 93 93 SSE 7 11 29.83 1010 10 16.0934 0 0
5:15 am 05:15 Clear 67 19.3 65 18.2 93 93 SE 7 11 29.83 1010 10 16.0934 0 0
5:35 am 05:35 Clear 67 19.2 65 18.2 94 94 SSE 6 9 29.83 1010 10 16.0934 0 0
5:55 am 05:55 Clear 66 19 64 18 94 94 SSE 5 7 29.85 1011 10 16.0934 0 0
6:15 am 06:15 Clear 66 19 64 18 94 94 SSE 5 7 29.85 1011 7 11.26538 0 0
6:35 am 06:35 Sunny 66 19 65 18.1 95 95 SSE 3 6 29.85 1011 7 11.26538 0 0
6:55 am 06:55 Sunny 66 19 65 18.1 95 95 SSE 3 6 29.85 1011 7 11.26538 0 0
7:15 am 07:15 Sunny 67 19.3 65 18.5 95 95 SSE 6 9 29.91 1013 7 11.26538 0 0
7:35 am 07:35 Partly Cloudy 67 19.7 66 18.7 94 94 SSE 5 7 29.88 1012 7 11.26538 0 0
7:55 am 07:55 Mostly Cloudy 69 20.5 67 19.5 94 94 SSE 6 9 29.88 1012 7 11.26538 0 0
8:15 am 08:15 Cloudy 70 21 68 20 94 94 SSE 8 13 29.88 1012 7 11.26538 0 0
8:35 am 08:35 Cloudy 71 21.8 69 20.3 91 91 S 8 13 29.88 1012 7 11.26538 0 0
8:55 am 08:55 Cloudy 72 22 69 20.3 90 90 SSE 7 11 29.88 1012 7 11.26538 0 0
9:15 am 09:15 Cloudy 73 22.8 69 20.6 87 87 SSE 8 13 29.85 1011 10 16.0934 0 0
9:35 am 09:35 Cloudy 74 23.1 70 21 88 88 SSE 8 13 29.85 1011 10 16.0934 0 0
9:55 am 09:55 Cloudy 75 24.1 70 21.3 84 84 S 13 20 29.85 1011 10 16.0934 0 0
10:15 am 10:15 Mostly Cloudy 76 24.7 71 21.5 82 82 S 9 15 29.85 1011 10 16.0934 0 0
10:35 am 10:35 Mostly Cloudy 78 25.7 72 22 80 80 S 12 19 29.85 1011 10 16.0934 0 0
10:55 am 10:55 Mostly Cloudy 79 26.3 72 22 77 77 S 8 13 29.85 1011 10 16.0934 0 0
11:15 am 11:15 Mostly Cloudy 80 26.6 72 22 76 76 S 10 17 29.83 1010 10 16.0934 0 0
11:35 am 11:35 Mostly Cloudy 81 27.4 72 22.2 73 73 S 12 19 29.83 1010 10 16.0934 0 0
11:55 am 11:55 Mostly Cloudy 82 27.8 72 22.3 72 72 S 13 20 29.83 1010 10 16.0934 0 0
12:15 pm 12:15 Partly Cloudy 85 29.3 72 22.3 66 66 S 10 17 29.83 1010 10 16.0934 0 0
12:35 pm 12:35 Partly Cloudy 85 29.3 72 22.1 65 65 S 13 20 29.83 1010 10 16.0934 0 0
12:55 pm 12:55 Partly Cloudy 86 30.1 71 21.6 60 60 SSE 12 19 29.83 1010 10 16.0934 0 0
1:15 pm 13:15 Partly Cloudy 86 30.2 71 21.6 60 60 S 10 17 29.77 1008 10 16.0934 0 0
1:35 pm 13:35 Partly Cloudy 87 30.4 70 21.2 58 58 SSE 10 17 29.77 1008 10 16.0934 0 0
1:55 pm 13:55 Mostly Cloudy 87 30.8 71 21.5 58 58 SSE 12 19 29.77 1008 10 16.0934 0 0
2:15 pm 14:15 Partly Cloudy 88 31.2 71 21.5 56 56 S 13 20 29.77 1008 10 16.0934 0 0
2:35 pm 14:35 Partly Cloudy 89 31.4 70 21.2 55 55 S 10 17 29.77 1008 10 16.0934 0 0
2:55 pm 14:55 Partly Cloudy 90 32 71 21.6 54 54 SSE 15 24 29.77 1008 10 16.0934 0 0
3:15 pm 15:15 Partly Cloudy 89 31.5 71 21.6 56 56 SSE 10 17 29.77 1008 10 16.0934 0 0
3:35 pm 15:35 Partly Cloudy 90 32 71 21.4 53 53 SE 10 17 29.77 1008 10 16.0934 0 0
3:55 pm 15:55 Partly Cloudy 90 32.3 71 21.4 53 53 SSE 12 19 29.77 1008 10 16.0934 0 0
4:15 pm 16:15 Sunny 91 32.5 71 21.5 52 52 SSE 12 19 29.74 1007 10 16.0934 0 0
4:35 pm 16:35 Sunny 91 32.7 71 21.6 52 52 SSE 12 19 29.74 1007 10 16.0934 0 0
4:55 pm 16:55 Sunny 91 32.9 71 21.6 51 51 SSE 12 19 29.74 1007 10 16.0934 0 0
5:15 pm 17:15 Sunny 91 33 71 21.6 51 51 SSE 12 19 29.74 1007 10 16.0934 0 0
5:35 pm 17:35 Sunny 91 32.8 71 21.4 51 51 SE 12 19 29.74 1007 10 16.0934 0 0
5:55 pm 17:55 Sunny 91 32.7 71 21.5 52 52 SSE 13 20 29.74 1007 10 16.0934 0 0
6:15 pm 18:15 Sunny 91 32.7 71 21.8 53 53 SE 8 13 29.74 1007 10 16.0934 0 0
6:35 pm 18:35 Sunny 91 32.7 71 21.9 53 53 SSE 9 15 29.74 1007 10 16.0934 0 0
6:55 pm 18:55 Sunny 89 31.7 71 21.7 55 55 SSE 10 17 29.74 1007 10 16.0934 0 0
7:15 pm 19:15 Sunny 87 30.8 72 22.2 60 60 SSE 7 11 29.74 1007 10 16.0934 0 0
7:35 pm 19:35 Sunny 86 30.2 72 22.4 63 63 SSE 8 13 29.74 1007 10 16.0934 0 0
7:55 pm 19:55 Sunny 85 29.6 72 22.2 64 64 SSE 9 15 29.74 1007 10 16.0934 0 0
8:15 pm 20:15 Sunny 83 28.6 72 22.1 68 68 SSE 8 13 29.77 1008 10 16.0934 0 0
8:35 pm 20:35 Sunny 82 28 72 22 70 70 SSE 7 11 29.77 1008 10 16.0934 0 0
8:55 pm 20:55 Sunny 82 27.5 72 22 72 72 SSE 6 9 29.77 1008 10 16.0934 0 0
9:15 pm 21:15 Clear 81 27 72 22.1 75 75 SSE 6 9 29.77 1008 10 16.0934 0 0
9:35 pm 21:35 Clear 80 26.7 72 22 75 75 S 9 15 29.77 1008 10 16.0934 0 0
9:55 pm 21:55 Partly Cloudy with Light Thunderstorms 81 27.4 71 21.5 70 70 SSE 18 30 29.74 1007 10 16.0934 0 0
10:15 pm 22:15 Partly Cloudy with Nearby Thunderstorms 82 27.6 70 21.1 68 68 S 16 26 29.74 1007 10 16.0934 0 0
10:35 pm 22:35 Clear with Thunderstorms 83 28.1 69 20.5 63 63 S 15 24 29.74 1007 10 16.0934 0 0
10:55 pm 22:55 Clear with Thunderstorms 82 27.6 68 20 63 63 SSW 13 20 29.77 1008 10 16.0934 0 0
11:15 pm 23:15 Clear with Thunderstorms 80 26.9 58 14.4 46 46 SSW 7 11 29.74 1007 10 16.0934 0 0
11:35 pm 23:35 Clear 79 26 59 15.2 51 51 SSW 7 11 29.77 1008 10 16.0934 0 0
11:55 pm 23:55 Clear 80 26.5 60 15.8 52 52 SSW 6 9 29.77 1008 10 16.0934 0 0

Powered by AerisWeather